Tracking 32991 objects as of 22-Jan-2026
HD Live streaming from Space Station
objects crossing your sky now

RADUGA 26

Track RADUGA 26 now!
RADUGA 26 is classified as:


NORAD ID: 21016
Int'l Code: 1990-112A
Perigee: 35,797.9 km
Apogee: 35,817.1 km
Inclination: 13.0 °
Period: 1,436.8 minutes
Semi major axis: 42178 km
RCS: 2.5118 m2 (large)
Launch date: December 20, 1990
Source: Commonwealth of Independent States (former USSR) (CIS)
Launch site: TYURATAM MISSILE AND SPACE COMPLEX (TTMTR)
Your satellite tracking list
Your tracking list is empty




NASA's NSSDC Master Catalog

Two Line Element Set (TLE):
1 21016U 90112A   26022.37721306 -.00000069  00000-0  00000+0 0  9999
2 21016  12.9650 338.9279 0002272 115.9489 236.2689  1.00222629128793
Source of the keplerian elements: AFSPC